Flag for Moldova Weather past 2 weeks in Chisinau, Moldova

Now
81 °F

Passing clouds.


Feels Like: 81 °F
Forecast: 66 / 86 °F
Wind: 6 mph from North

Location: Chisinau International Airport

Current Time: Aug 29, 2015 at 10:26:33 AM

Latest Report: Aug 29, 2015 at 10:00 AM


Visibility: N/A

Pressure: 30.12 "Hg

Humidity: 45%

Dew point: 57 °F

Location of ChisinauLocation

Historic Weather in Chisinau — Graph

°F

Chisinau temperature yesterday

Maximum temperature yesterday: 93 °F (at 3:00 PM)
Minimum temperature yesterday: 59 °F (at 7:00 AM)
Average temperature yesterday: 78 °F

Past Weeks' High & Low Weather Summary

 TemperatureHumidityPressure
High93 °F (Aug 28, 3:00 PM)88% (Aug 16, 6:00 AM)30.24 "Hg (Aug 16, 6:00 AM)
Low54 °F (Aug 25, 7:00 AM)15% (Aug 25, 4:30 PM)29.77 "Hg (Aug 15, 5:00 PM)
Average72 °F48%30.02 "Hg
* Reported Aug 14 9:00 AM — Aug 29 9:00 AM, Chisinau, Weather by CustomWeather, © 2015

Note: Actual official high and low records may vary slightly from our data, if they occured in-between our weather recording intervals... More about our weather records

Advertising

Chisinau weather history for previous 24 hours

 ConditionsComfort  
Time TempWeatherWind HumidityBarometerVisibility
9:00 AM
Sat, Aug 29
75 °FSunny.2 mph54%30.12 "Hg10 mi
8:30 AM72 °FSunny.No wind65%30.12 "Hg10 mi
8:00 AM68 °FSunny.No wind69%30.12 "Hg10 mi
7:00 AM63 °FClear.1 mph73%30.12 "Hg10 mi
6:00 AM63 °FClear.1 mph77%30.09 "Hg10 mi
5:30 AM63 °FClear.6 mph73%30.09 "Hg10 mi
5:00 AM68 °FClear.No wind69%30.09 "Hg10 mi
4:30 AM66 °FClear.No wind68%30.09 "Hg10 mi
4:00 AM66 °FClear.5 mph64%30.09 "Hg10 mi
3:30 AM66 °FClear.3 mph64%30.09 "Hg10 mi
3:00 AM68 °FClear.2 mph60%30.09 "Hg10 mi
2:30 AM70 °FClear.2 mph57%30.09 "Hg10 mi
2:00 AM70 °FClear.2 mph57%30.09 "Hg10 mi
1:30 AM70 °FClear.6 mph60%30.09 "Hg10 mi
1:00 AM72 °FClear.6 mph53%30.09 "Hg10 mi
12:30 AM72 °FClear.2 mph57%30.09 "Hg10 mi
12:00 AM75 °FClear.5 mph47%30.07 "Hg10 mi
11:30 PM
Fri, Aug 28
75 °FClear.2 mph47%30.07 "Hg10 mi
11:00 PM75 °FClear.2 mph47%30.07 "Hg10 mi
10:30 PM77 °FClear.1 mph44%30.07 "Hg10 mi
10:00 PM79 °FClear.6 mph39%30.07 "Hg10 mi
9:30 PM79 °FClear.7 mph39%30.07 "Hg10 mi
9:00 PM81 °FClear.6 mph39%30.07 "Hg10 mi
8:30 PM84 °FSunny.7 mph35%30.07 "Hg10 mi
8:00 PM86 °FSunny.6 mph27%30.07 "Hg10 mi
7:30 PM88 °FSunny.7 mph25%30.04 "Hg10 mi
7:00 PM91 °FSunny.8 mph23%30.04 "Hg10 mi
6:30 PM91 °FSunny.8 mph21%30.04 "Hg10 mi
6:00 PM93 °FPassing clouds.6 mph20%30.04 "HgN/A
5:30 PM93 °FPassing clouds.8 mph21%30.04 "HgN/A
5:00 PM93 °FPassing clouds.10 mph23%30.07 "HgN/A
4:30 PM93 °FSunny.10 mph21%30.04 "Hg10 mi
4:00 PM91 °FPassing clouds.5 mph23%30.07 "HgN/A
3:30 PM93 °FPassing clouds.7 mph21%30.07 "HgN/A
3:00 PM93 °FSunny.3 mph21%30.07 "Hg10 mi
2:30 PM91 °FSunny.3 mph23%30.07 "Hg10 mi
2:00 PM91 °FPassing clouds.7 mph23%30.07 "HgN/A
1:30 PM91 °FSunny.7 mph23%30.09 "Hg10 mi
1:00 PM90 °FSunny.3 mph24%30.09 "Hg10 mi
12:30 PM90 °FPassing clouds.6 mph26%30.09 "HgN/A
12:00 PM88 °FPassing clouds.6 mph27%30.12 "HgN/A
11:30 AM86 °FSunny.6 mph33%30.12 "Hg10 mi
11:00 AM82 °FSunny.5 mph37%30.12 "Hg10 mi
10:30 AM81 °FPassing clouds.3 mph42%30.12 "HgN/A
10:00 AM79 °FSunny.3 mph45%30.12 "Hg10 mi
Weather by CustomWeather, © 2015

See weather overviewHow to use our weather pages